TimePDT,TemperatureF,Dew PointF,Humidity,Sea Level PressureIn,VisibilityMPH,Wind Direction,Wind SpeedMPH,Gust SpeedMPH,PrecipitationIn,Events,Conditions,WindDirDegrees,DateUTC
12:53 AM,61.0,54.0,78,29.88,10.0,Calm,Calm,-,N/A,,Clear,0,2012-10-20 07:53:00
1:53 AM,59.0,53.1,81,29.88,10.0,Calm,Calm,-,N/A,,Clear,0,2012-10-20 08:53:00
2:53 AM,57.0,53.1,87,29.86,10.0,Calm,Calm,-,N/A,,Clear,0,2012-10-20 09:53:00
3:53 AM,55.9,52.0,87,29.85,10.0,Calm,Calm,-,N/A,,Clear,0,2012-10-20 10:53:00
4:53 AM,55.0,51.1,86,29.85,10.0,Calm,Calm,-,N/A,,Clear,0,2012-10-20 11:53:00
5:53 AM,55.0,52.0,89,29.85,10.0,WNW,3.5,-,N/A,,Clear,300,2012-10-20 12:53:00
6:53 AM,55.0,52.0,89,29.86,10.0,Calm,Calm,-,N/A,,Clear,0,2012-10-20 13:53:00
7:53 AM,55.0,52.0,89,29.86,10.0,Calm,Calm,-,N/A,,Clear,0,2012-10-20 14:53:00
8:53 AM,60.1,55.0,83,29.87,10.0,Calm,Calm,-,N/A,,Clear,0,2012-10-20 15:53:00
9:53 AM,66.0,54.0,65,29.86,10.0,Calm,Calm,-,N/A,,Clear,0,2012-10-20 16:53:00
10:53 AM,72.0,54.0,53,29.84,10.0,Calm,Calm,-,N/A,,Clear,0,2012-10-20 17:53:00
11:53 AM,75.9,54.0,46,29.84,10.0,NW,6.9,-,N/A,,Clear,320,2012-10-20 18:53:00
12:53 PM,79.0,54.0,42,29.81,10.0,NNW,5.8,-,N/A,,Clear,330,2012-10-20 19:53:00
1:53 PM,81.0,53.1,38,29.79,10.0,WNW,10.4,-,N/A,,Clear,300,2012-10-20 20:53:00
2:53 PM,82.0,48.0,30,29.76,10.0,NW,8.1,-,N/A,,Clear,320,2012-10-20 21:53:00
3:53 PM,82.0,45.0,27,29.75,10.0,West,9.2,-,N/A,,Clear,280,2012-10-20 22:53:00
4:53 PM,81.0,46.9,30,29.75,10.0,NW,9.2,-,N/A,,Clear,320,2012-10-20 23:53:00
5:53 PM,75.9,48.9,38,29.75,10.0,WNW,6.9,-,N/A,,Clear,300,2012-10-21 00:53:00
6:53 PM,70.0,51.1,51,29.76,10.0,NW,4.6,-,N/A,,Clear,310,2012-10-21 01:53:00
7:53 PM,66.9,52.0,59,29.77,10.0,NNW,3.5,-,N/A,,Clear,340,2012-10-21 02:53:00
8:53 PM,63.0,51.1,65,29.77,10.0,West,3.5,-,N/A,,Clear,280,2012-10-21 03:53:00
9:53 PM,62.1,52.0,70,29.80,10.0,WNW,8.1,-,N/A,,Clear,300,2012-10-21 04:53:00
10:53 PM,62.1,52.0,70,29.81,10.0,NW,10.4,-,N/A,,Clear,310,2012-10-21 05:53:00
11:53 PM,60.1,51.1,72,29.80,10.0,NW,6.9,-,N/A,,Clear,320,2012-10-21 06:53:00